User: anonymous   Login
Location: Chatham
(39.6760°N, 89.7040°W)
Time: 22:38:31
(UTC-05:00)
Language:

NOSS 3-1 (C) - Orbit

View from above orbital plane
View from above orbital plane
View from above satellite
View from above satellite

Ground track
Ground track

The orbit data is extracted from the following two-line orbital elements,

1 26907U 01040C   16209.88548078 0.00000000  00000-0  00000-0 0    08
2 26907  63.4158 137.3456 0344000 358.6521   1.3479 13.41254817    03
Epoch (UTC): 27 July 2016 21:15:05
Eccentricity: 0.0344000
inclination: 63.4158°
perigee height: 847 km
apogee height: 1362 km
right ascension of ascending node: 137.3456°
argument of perigee: 358.6521°
revolutions per day: 13.41254817
mean anomaly at epoch: 1.3479°
orbit number at epoch: 0

The dashed part of the orbit path shows where the satellite is in the earth's shadow,  

DLR